Ankeny, IA

8:11 PM CST on November 15, 2019 (GMT -0600)
Ankeny Regional

Weather History for KIKV - September, 2019

Change the Weather History Date:

Tuesday, September 24, 2019

  Actual Average (WUND) Record (WUND)
Temperature  
Mean Temperature 72 °F -  
Max Temperature 84 °F - - (-1)
Min Temperature 60 °F - - (-1)
Cooling Degree Days 7    
Growing Degree Days 22 (Base 50)    
Moisture  
Dew Point 65 °F    
Average Humidity 77    
Maximum Humidity 94    
Minimum Humidity 58    
Precipitation  
Precipitation 0.00 in - - ()
Sea Level Pressure  
Sea Level Pressure 29.82 in    
Wind  
Wind Speed 8 mph ()    
Max Wind Speed 21 mph    
Max Gust Speed 31 mph    
Visibility 10.0 miles    
Events      
Averages and records for this station are not official NWS values.
T = Trace of Precipitation, MM = Missing Value Source: Averaged Metar Reports

Daily Weather History Graph

Daily Weather History Graph

Search for Another Location

Airport or City:

Astronomy

Sep. 24, 2019 Rise Set
Actual Time 7:03 AM CDT 7:08 PM CDT
Civil Twilight 6:35 AM CDT 7:36 PM CDT
Nautical Twilight 6:03 AM CDT 8:08 PM CDT
Astronomical Twilight 5:30 AM CDT 8:41 PM CDT
Moon 1:44 AM CDT (9/24) 4:59 PM CDT (9/24)
Length of Visible Light 13h 00m
Length of Day
12h 04m
Waning Crescent, 23% of the Moon is Illuminated
Sep 24
Waning Crescent
Sep 28
New
Oct 5
First Quarter
Oct 13
Full
Oct 21
Last Quarter

Hourly Weather History & Observations

Time (CDT) Temp. Heat Index Dew Point Humidity Pressure Visibility Wind Dir Wind Speed Gust Speed Precip Events Conditions
12:15 AM 66.2 °F - 60.8 °F 83% 29.99 in 10.0 mi SSW 6.9 mph - N/A   Clear
12:35 AM 66.2 °F - 60.8 °F 83% 29.98 in 10.0 mi South 4.6 mph - N/A   Clear
12:55 AM 66.2 °F - 60.8 °F 83% 29.97 in 10.0 mi SSW 4.6 mph 13.8 mph N/A   Clear
1:15 AM 64.4 °F - 60.8 °F 88% 29.97 in 10.0 mi South 4.6 mph - N/A   Clear
1:35 AM 62.6 °F - 60.8 °F 94% 29.97 in 10.0 mi Calm Calm - N/A   Clear
1:55 AM 60.8 °F - 59.0 °F 94% 29.97 in 10.0 mi Calm Calm - N/A   Clear
2:15 AM 60.8 °F - 59.0 °F 94% 29.96 in 10.0 mi Variable 4.6 mph - N/A   Clear
2:35 AM 62.6 °F - 59.0 °F 88% 29.96 in 10.0 mi Calm Calm - N/A   Clear
2:55 AM 64.4 °F - 60.8 °F 88% 29.95 in 10.0 mi SSW 5.8 mph - N/A   Clear
3:15 AM 64.4 °F - 60.8 °F 88% 29.95 in 10.0 mi SSW 5.8 mph - N/A   Clear
5:15 AM 64.4 °F - 59.0 °F 83% 29.94 in 10.0 mi SSW 8.1 mph 13.8 mph N/A   Clear
5:35 AM 62.6 °F - 59.0 °F 88% 29.94 in 10.0 mi SSW 6.9 mph - N/A   Clear
5:55 AM 62.6 °F - 59.0 °F 88% 29.95 in 10.0 mi South 5.8 mph - N/A   Clear
6:15 AM 60.8 °F - 59.0 °F 94% 29.94 in 10.0 mi South 3.5 mph - N/A   Clear
6:35 AM 60.8 °F - 59.0 °F 94% 29.94 in 10.0 mi South 5.8 mph - N/A   Clear
6:55 AM 60.8 °F - 59.0 °F 94% 29.93 in 10.0 mi South 5.8 mph - N/A   Clear
7:15 AM 60.8 °F - 59.0 °F 94% 29.92 in 10.0 mi South 4.6 mph - N/A   Clear
7:35 AM 62.6 °F - 59.0 °F 88% 29.92 in 10.0 mi Variable 3.5 mph - N/A   Clear
7:55 AM 62.6 °F - 59.0 °F 88% 29.91 in 10.0 mi South 5.8 mph - N/A   Clear
8:15 AM 64.4 °F - 59.0 °F 83% 29.91 in 10.0 mi Variable 4.6 mph - N/A   Clear
8:35 AM 64.4 °F - 57.2 °F 77% 29.92 in 10.0 mi SW 6.9 mph 15.0 mph N/A   Partly Cloudy
8:55 AM 66.2 °F - 57.2 °F 73% 29.92 in 10.0 mi SSW 10.4 mph - N/A   Mostly Cloudy
9:15 AM 66.2 °F - 59.0 °F 78% 29.91 in 10.0 mi SSW 10.4 mph - N/A   Mostly Cloudy
9:35 AM 68.0 °F - 59.0 °F 73% 29.90 in 10.0 mi SSW 10.4 mph 19.6 mph N/A   Partly Cloudy
9:55 AM 69.8 °F - 60.8 °F 73% 29.90 in 10.0 mi SSW 9.2 mph - N/A   Partly Cloudy
10:15 AM 71.6 °F - 60.8 °F 69% 29.89 in 10.0 mi SSW 12.7 mph - N/A   Partly Cloudy
10:35 AM 73.4 °F - 62.6 °F 69% 29.88 in 10.0 mi SW 11.5 mph 18.4 mph N/A   Mostly Cloudy
10:55 AM 75.2 °F - 62.6 °F 65% 29.88 in 10.0 mi SW 10.4 mph - N/A   Scattered Clouds
11:15 AM 77.0 °F - 64.4 °F 65% 29.87 in 10.0 mi SSW 9.2 mph 16.1 mph N/A   Clear
11:35 AM 77.0 °F - 66.2 °F 69% 29.86 in 10.0 mi SW 12.7 mph 19.6 mph N/A   Clear
11:55 AM 78.8 °F - 68.0 °F 69% 29.86 in 10.0 mi SSW 11.5 mph - N/A   Clear
12:15 PM 80.6 °F 83.2 °F 68.0 °F 65% 29.85 in 10.0 mi SSW 15.0 mph - N/A   Clear
12:35 PM 80.6 °F 83.2 °F 68.0 °F 65% 29.84 in 10.0 mi SSW 12.7 mph - N/A   Clear
12:55 PM 80.6 °F 83.2 °F 68.0 °F 65% 29.83 in 10.0 mi SW 12.7 mph 24.2 mph N/A   Clear
1:15 PM 80.6 °F 83.2 °F 68.0 °F 65% 29.82 in 10.0 mi SSW 15.0 mph 21.9 mph N/A   Partly Cloudy
1:35 PM 82.4 °F 86.3 °F 69.8 °F 66% 29.80 in 10.0 mi SSW 18.4 mph - N/A   Partly Cloudy
1:55 PM 82.4 °F 86.3 °F 69.8 °F 66% 29.79 in 10.0 mi SW 18.4 mph 26.5 mph N/A   Clear
2:15 PM 84.2 °F 87.3 °F 68.0 °F 58% 29.78 in 10.0 mi SSW 15.0 mph 28.8 mph N/A   Clear
2:35 PM 84.2 °F 87.3 °F 68.0 °F 58% 29.77 in 10.0 mi SW 19.6 mph 25.3 mph N/A   Clear
2:55 PM 84.2 °F 87.3 °F 68.0 °F 58% 29.77 in 10.0 mi SW 17.3 mph 26.5 mph N/A   Clear
3:15 PM 82.4 °F 86.3 °F 69.8 °F 66% 29.76 in 10.0 mi SSW 18.4 mph 27.6 mph N/A   Mostly Cloudy
3:35 PM 82.4 °F 85.4 °F 68.0 °F 62% 29.75 in 10.0 mi SSW 20.7 mph 31.1 mph N/A   Partly Cloudy
3:55 PM 82.4 °F 86.3 °F 69.8 °F 66% 29.74 in 10.0 mi SSW 16.1 mph 27.6 mph N/A   Scattered Clouds
4:35 PM 82.4 °F 86.3 °F 69.8 °F 66% 29.73 in 10.0 mi South 17.3 mph 31.1 mph N/A   Scattered Clouds
4:55 PM 82.4 °F 86.3 °F 69.8 °F 66% 29.71 in 10.0 mi SSW 18.4 mph 25.3 mph N/A   Scattered Clouds
5:15 PM 82.4 °F 86.3 °F 69.8 °F 66% 29.70 in 10.0 mi South 16.1 mph 26.5 mph N/A   Mostly Cloudy
5:35 PM 80.6 °F 83.2 °F 68.0 °F 65% 29.71 in 10.0 mi SSW 18.4 mph 28.8 mph N/A   Scattered Clouds
5:55 PM 80.6 °F 83.2 °F 68.0 °F 65% 29.72 in 10.0 mi South 15.0 mph 27.6 mph N/A   Partly Cloudy
6:15 PM 78.8 °F - 68.0 °F 69% 29.71 in 10.0 mi SSW 17.3 mph 26.5 mph N/A   Partly Cloudy
6:35 PM 78.8 °F - 68.0 °F 69% 29.71 in 10.0 mi South 13.8 mph 25.3 mph N/A   Partly Cloudy
6:55 PM 78.8 °F - 68.0 °F 69% 29.70 in 10.0 mi South 11.5 mph 20.7 mph N/A   Clear
7:15 PM 77.0 °F - 68.0 °F 74% 29.68 in 10.0 mi South 10.4 mph 18.4 mph N/A   Clear
7:35 PM 77.0 °F - 68.0 °F 74% 29.67 in 10.0 mi South 11.5 mph 23.0 mph N/A   Clear
7:55 PM 77.0 °F - 68.0 °F 74% 29.68 in 10.0 mi South 19.6 mph - N/A   Scattered Clouds
8:15 PM 77.0 °F - 68.0 °F 74% 29.67 in 10.0 mi South 19.6 mph - N/A   Partly Cloudy
8:35 PM 75.2 °F - 68.0 °F 78% 29.68 in 10.0 mi SSW 17.3 mph 24.2 mph N/A   Partly Cloudy
8:55 PM 75.2 °F - 68.0 °F 78% 29.68 in 10.0 mi South 16.1 mph - N/A   Clear
9:15 PM 73.4 °F - 68.0 °F 83% 29.68 in 10.0 mi South 13.8 mph 23.0 mph N/A   Clear
9:35 PM 73.4 °F - 68.0 °F 83% 29.69 in 10.0 mi SSW 12.7 mph 20.7 mph N/A   Scattered Clouds
9:55 PM 73.4 °F - 68.0 °F 83% 29.67 in 10.0 mi South 15.0 mph - N/A   Mostly Cloudy
10:15 PM 73.4 °F - 68.0 °F 83% 29.68 in 10.0 mi SSW 15.0 mph 21.9 mph N/A   Overcast
10:35 PM 73.4 °F - 68.0 °F 83% 29.71 in 10.0 mi SSW 12.7 mph 23.0 mph N/A   Mostly Cloudy
10:55 PM 73.4 °F - 68.0 °F 83% 29.72 in 10.0 mi SW 10.4 mph 19.6 mph N/A   Overcast
11:15 PM 73.4 °F - 68.0 °F 83% 29.73 in 10.0 mi SW 10.4 mph - N/A   Overcast
11:35 PM 73.4 °F - 69.8 °F 88% 29.72 in 9.0 mi SSW 9.2 mph - N/A   Overcast
11:55 PM 71.6 °F - 69.8 °F 94% 29.71 in 10.0 mi West 6.9 mph - N/A   Mostly Cloudy